Clarksburg, WV

8:41 PM EDT on October 20, 2017 (GMT -0400)
Benedum

Weather History for KCKB - October, 2012

Change the Weather History Date:

Saturday, October 27, 2012

  Actual Average Record
Temperature  
Mean Temperature 54 °F -  
Max Temperature 60 °F 62 °F 79 °F (1984)
Min Temperature 48 °F 36 °F 16 °F (1962)
Degree Days  
Heating Degree Days 11    
Growing Degree Days 4 (Base 50)    
Moisture  
Dew Point 49 °F    
Average Humidity 89    
Maximum Humidity 97    
Minimum Humidity 72    
Precipitation  
Precipitation 0.07 in - - ()
Sea Level Pressure  
Sea Level Pressure 29.95 in    
Wind  
Wind Speed 6 mph (NNW)    
Max Wind Speed 10 mph    
Max Gust Speed -    
Visibility 6 miles    
Events Rain    
Averages and records for this station are not official NWS values.
T = Trace of Precipitation, MM = Missing Value Source: NWS Daily Summary

Daily Weather History Graph

Daily Weather History Graph

Search for Another Location

Airport or City:

Trip Planner

Search our weather history database for the weather conditions in past years. The results will help you decide how hot, cold, wet, or windy it might be!

Date:

Astronomy

Oct. 27, 2012 Rise Set
Actual Time 7:43 AM EDT 6:25 PM EDT
Civil Twilight 7:16 AM EDT 6:52 PM EDT
Nautical Twilight 6:44 AM EDT 7:24 PM EDT
Astronomical Twilight 6:13 AM EDT 7:55 PM EDT
Moon 5:09 PM EDT (10/27) 5:37 AM EDT (10/27)
Length of Visible Light 11h 36m
Length of Day
10h 41m
Waxing Gibbous, 96% of the Moon is Illuminated
Oct 27
Waxing Gibbous
Oct 29
Full
Nov 6
Last Quarter
Nov 13
New
Nov 20
First Quarter

Hourly Weather History & Observations

Time (EDT) Temp. Dew Point Humidity Pressure Visibility Wind Dir Wind Speed Gust Speed Precip Events Conditions
12:53 AM 57.0 °F 52.0 °F 83% 29.94 in 10.0 mi North 10.4 mph - N/A   Clear
1:53 AM 55.0 °F 51.1 °F 86% 29.94 in 10.0 mi NNE 6.9 mph - N/A   Clear
2:53 AM 53.1 °F 50.0 °F 89% 29.93 in 10.0 mi North 4.6 mph - N/A   Clear
3:53 AM 52.0 °F 48.9 °F 89% 29.91 in 10.0 mi North 3.5 mph - N/A   Clear
4:53 AM 52.0 °F 48.9 °F 89% 29.91 in 9.0 mi NE 4.6 mph - N/A   Clear
5:53 AM 51.1 °F 48.9 °F 92% 29.92 in 8.0 mi Calm Calm - N/A   Clear
6:53 AM 50.0 °F 48.9 °F 96% 29.93 in 5.0 mi Calm Calm - N/A   Clear
7:13 AM 50.0 °F 48.2 °F 94% 29.96 in 4.0 mi Calm Calm - N/A   Scattered Clouds
7:22 AM 50.0 °F 48.2 °F 94% 29.96 in 5.0 mi Calm Calm - N/A   Mostly Cloudy
7:53 AM 48.9 °F 48.0 °F 97% 29.94 in 4.0 mi Calm Calm - N/A   Mostly Cloudy
8:53 AM 51.1 °F 48.9 °F 92% 29.95 in 4.0 mi NNW 3.5 mph - N/A   Overcast
9:53 AM 53.1 °F 51.1 °F 93% 29.96 in 5.0 mi Calm Calm - N/A   Overcast
11:53 AM 57.0 °F 52.0 °F 83% 29.95 in 8.0 mi Calm Calm - N/A   Overcast
12:53 PM 59.0 °F 52.0 °F 78% 29.94 in 10.0 mi WNW 9.2 mph - N/A   Overcast
1:32 PM 60.8 °F 51.8 °F 72% 29.95 in 10.0 mi NNW 6.9 mph - N/A   Overcast
1:53 PM 60.1 °F 51.1 °F 72% 29.92 in 10.0 mi WNW 6.9 mph - N/A   Overcast
2:53 PM 55.0 °F 50.0 °F 83% 29.93 in 9.0 mi WNW 10.4 mph - N/A   Overcast
3:10 PM 53.6 °F 50.0 °F 88% 29.95 in 9.0 mi WNW 10.4 mph - N/A   Overcast
3:31 PM 53.6 °F 50.0 °F 88% 29.95 in 1.8 mi WNW 8.1 mph - 0.01 in Rain Rain
3:53 PM 51.1 °F 48.9 °F 92% 29.94 in 2.0 mi NNW 10.4 mph - 0.04 in Rain Light Rain
4:11 PM 51.8 °F 48.2 °F 88% 29.95 in 2.5 mi NW 10.4 mph - 0.01 in Rain Light Rain
4:18 PM 51.8 °F 48.2 °F 88% 29.95 in 2.5 mi NW 8.1 mph - 0.01 in Rain Light Rain
4:53 PM 50.0 °F 46.9 °F 89% 29.96 in 2.5 mi NNW 9.2 mph - 0.01 in   Overcast
5:00 PM 48.2 °F 46.4 °F 93% 29.97 in 3.0 mi NNW 8.1 mph - N/A   Overcast
5:46 PM 48.2 °F 46.4 °F 93% 29.98 in 2.5 mi NNW 4.6 mph - N/A   Overcast
5:53 PM 48.0 °F 46.0 °F 93% 29.97 in 2.0 mi North 5.8 mph - 0.00 in Rain Light Rain
6:06 PM 48.2 °F 46.4 °F 93% 29.98 in 3.0 mi North 6.9 mph - 0.01 in Rain Light Rain
6:18 PM 48.2 °F 46.4 °F 93% 29.99 in 2.5 mi North 9.2 mph - 0.01 in   Overcast
6:53 PM 48.0 °F 45.0 °F 89% 29.98 in 2.5 mi North 5.8 mph - 0.01 in   Overcast
7:00 PM 48.2 °F 46.4 °F 93% 29.99 in 10.0 mi North 5.8 mph - N/A   Overcast
7:53 PM 48.0 °F 46.0 °F 93% 29.98 in 6.0 mi North 5.8 mph - N/A   Overcast
8:53 PM 48.0 °F 46.0 °F 93% 29.98 in 3.0 mi North 3.5 mph - N/A   Overcast
9:53 PM 48.0 °F 46.0 °F 93% 29.97 in 6.0 mi Calm Calm - 0.01 in   Overcast
10:53 PM 48.0 °F 46.0 °F 93% 29.97 in 6.0 mi North 6.9 mph - N/A   Overcast